Regional Weather Roundup
Issued by NWS

Home | Current Version | Previous Version | Graphics & Text | Print | Product List | Glossary On
Versions: 1 2 3 4 5 6 7 8 9 10 11 12 13 14 15 16 17 18 19 20 21 22 23 24 25 26 27 28 29 30 31 32 33 34 35 36 37 38 39 40 41 42 43 44 45 46 47 48 49 50
000
ASUS43 KFSD 121310
RWRSD

WEATHER ROUNDUP FOR SOUTH DAKOTA
NATIONAL WEATHER SERVICE SIOUX FALLS SD
700 AM CST TUE DEC 12 2017

NOTE: "FAIR" INDICATES FEW OR NO CLOUDS BELOW 12,000 FEET WITH NO
SIGNIFICANT WEATHER AND/OR OBSTRUCTIONS TO VISIBILITY.


SDZ001>005-009-010-012>017-121400-
NORTHWEST AND NORTH CENTRAL SOUTH DAKOTA

CITY           SKY/WX    TMP DP  RH WIND       PRES   REMARKS
BUFFALO          N/A     28  20  71 W15       30.07F WCI  16
FAITH            N/A     21  19  92 S8        30.15F WCI  11
MOBRIDGE       CLOUDY    27  22  81 CALM      30.13F
$$

SDZ012>016-024>037-041>051-057-063-072>074-121400-
SOUTHWEST AND SOUTH CENTRAL SOUTH DAKOTA

CITY           SKY/WX    TMP DP  RH WIND       PRES   REMARKS
RAPID CTY ARPT CLOUDY    23   8  52 CALM      30.19F
PIERRE         CLOUDY    25  24  96 W5        30.21F WCI  19
CUSTER         CLOUDY    35  12  38 W8        30.21F WCI  29
ELLSWORTH AFB  CLOUDY    23   9  55 W5        30.17F WCI  17
PHILIP         CLOUDY    22  20  92 W10       30.22F WCI  11
PINE RIDGE     CLOUDY    24  17  74 SW6       30.25F WCI  17
SPEARFISH      FAIR      43  16  33 W13G22    30.18F
WINNER         FAIR      26  22  84 W9        30.25F WCI  17
$$

SDZ004>011-016>023-039-040-121400-
NORTHEAST SOUTH DAKOTA

CITY           SKY/WX    TMP DP  RH WIND       PRES   REMARKS
ABERDEEN       CLOUDY    19  19 100 SW7       30.18F WCI  10
WATERTOWN      CLOUDY    20  18  92 SW7       30.16F WCI  11
BROOKINGS      CLOUDY    17  14  88 S6        30.21F WCI   9
SISSETON         N/A     24  19  81 W7        30.14F WCI  16
$$

SDZ017-020-022-023-036>040-048>070-121400-
SOUTHEAST SOUTH DAKOTA

CITY           SKY/WX    TMP DP  RH WIND       PRES   REMARKS
SIOUX FALLS    CLOUDY    16  14  92 W5        30.25F WCI   9
HURON          CLOUDY    23  20  88 S9        30.22F WCI  13
CHAMBERLAIN    CLOUDY    27  27  99 W3        30.25S
MITCHELL       CLOUDY    22  20  92 S5        30.27F WCI  16
YANKTON        CLOUDY    18  14  84 S3        30.30
$$

ABBREVIATIONS USED IN REMARKS
   TC - TEMPERATURE IN CELSIUS
  WCI - WIND CHILL INDEX
   HX - HEAT INDEX
  VSB - VISIBILITY




USA.gov is the U.S. government's official web portal to all federal, state and local government web resources and services.